User: anonymous   Login
Location: Unspecified
(0.0000°N, 0.0000°E)
Time: 08:42:03
(UTC+00:00)
Language:

SSETI-EXPRESS - Orbit

View from above orbital plane
View from above orbital plane
View from above satellite
View from above satellite

Ground track
Ground track

The orbit data is extracted from the following two-line orbital elements,

1 28894U 05043E   19345.78647243 +.00000029 +00000-0 +14945-4 0  9994
2 28894 098.0073 116.9963 0017162 177.3102 182.8195 14.61606421752439
Epoch (UTC): 11 December 2019 18:52:31
Eccentricity: 0.0017162
inclination: 98.0073°
perigee height: 676 km
apogee height: 700 km
right ascension of ascending node: 116.9963°
argument of perigee: 177.3102°
revolutions per day: 14.61606421
mean anomaly at epoch: 182.8195°
orbit number at epoch: 75243

The dashed part of the orbit path shows where the satellite is in the earth's shadow,  

DLR